| time (UTC) | temp C | wind direction | speed KPH | gust KPH | rain 1hr cm | rain 24hr cm | rain mn cm | humidity % | barometer mb |
| 20260502190052 | 21 | 40 | 3.2 | 17.7 | 0.00 | 0.58 | 0.03 | 43 | 1018.7 |
| 20260502190023 | 21 | 40 | 3.2 | 14.5 | 0.00 | 0.61 | 0.03 | 54 | 1019.2 |
| 20260502184552 | 21 | 310 | 6.4 | 16.1 | 0.00 | 0.61 | 0.03 | 44 | 1018.9 |
| 20260502184527 | 21 | 348 | 6.4 | 16.1 | 0.00 | 0.61 | 0.03 | 54 | 1019.4 |
| 20260502183054 | 21 | 344 | 6.4 | 16.1 | 0.00 | 0.61 | 0.03 | 46 | 1019.2 |
| 20260502183020 | 21 | 350 | 9.7 | 16.1 | 0.00 | 0.61 | 0.03 | 57 | 1019.6 |
| 20260502181553 | 21 | 325 | 6.4 | 16.1 | 0.00 | 0.61 | 0.03 | 46 | 1019.6 |
| 20260502181521 | 21 | 335 | 6.4 | 16.1 | 0.00 | 0.61 | 0.03 | 56 | 1019.8 |
| 20260502163108 | 18 | 334 | 4.8 | 14.5 | 0.00 | 0.81 | 0.03 | 42 | 1020.0 |
| 20260502163006 | 18 | 304 | 4.8 | 14.5 | 0.00 | 0.81 | 0.03 | 53 | 1020.3 |
| 20260502161559 | 18 | 0 | 3.2 | 11.3 | 0.00 | 0.81 | 0.03 | 45 | 1020.0 |
| 20260502161502 | 18 | 292 | 1.6 | 9.7 | 0.00 | 0.81 | 0.03 | 55 | 1020.4 |
| 20260502151600 | 16 | 113 | 4.8 | 12.9 | 0.00 | 1.04 | 0.03 | 61 | 1020.4 |
| 20260502151557 | 16 | 113 | 3.2 | 12.9 | 0.00 | 1.04 | 0.03 | 49 | 1020.0 |
| 20260502150112 | 16 | 110 | 0.0 | 14.5 | 0.00 | 1.04 | 0.03 | 50 | 1020.0 |
| 20260502150103 | 16 | 38 | 1.6 | 14.5 | 0.00 | 1.04 | 0.03 | 62 | 1020.4 |
| 20260502130108 | 12 | 0 | 0.0 | 6.4 | 0.00 | 1.68 | 0.03 | 58 | 1018.6 |
| 20260502123100 | 10 | 0 | 0.0 | 0.0 | 0.00 | 2.08 | 0.03 | 58 | 1018.0 |
| 20260502123014 | 10 | 360 | 0.0 | 0.0 | 0.00 | 2.08 | 0.03 | 70 | 1018.4 |
| 20260502121559 | 8 | 0 | 0.0 | 0.0 | 0.00 | 2.08 | 0.03 | 58 | 1017.8 |
| 20260502121512 | 8 | 360 | 0.0 | 0.0 | 0.00 | 2.08 | 0.03 | 69 | 1018.2 |
| 20260502114557 | 8 | 0 | 0.0 | 0.0 | 0.00 | 2.21 | 0.03 | 57 | 1017.2 |
| 20260502114511 | 8 | 360 | 0.0 | 0.0 | 0.00 | 2.21 | 0.03 | 69 | 1017.6 |
| 20260502113053 | 8 | 0 | 0.0 | 0.0 | 0.00 | 2.21 | 0.03 | 57 | 1017.0 |
| 20260502113004 | 8 | 360 | 0.0 | 0.0 | 0.00 | 2.21 | 0.03 | 69 | 1017.4 |
| 20260502111555 | 8 | 0 | 0.0 | 0.0 | 0.00 | 2.21 | 0.03 | 57 | 1016.8 |
| 20260502111501 | 8 | 360 | 0.0 | 0.0 | 0.00 | 2.21 | 0.03 | 69 | 1017.2 |
| 20260502110103 | 8 | 360 | 0.0 | 0.0 | 0.00 | 2.21 | 0.03 | 69 | 1017.2 |
| 20260502110055 | 8 | 0 | 0.0 | 0.0 | 0.00 | 2.21 | 0.03 | 57 | 1016.7 |
| 20260502104558 | 8 | 360 | 0.0 | 0.0 | 0.00 | 2.21 | 0.03 | 68 | 1016.8 |
| 20260502104552 | 8 | 0 | 0.0 | 0.0 | 0.00 | 2.21 | 0.03 | 57 | 1016.4 |
| 20260502103101 | 9 | 360 | 0.0 | 0.0 | 0.00 | 2.21 | 0.03 | 68 | 1016.7 |
| 20260502103055 | 9 | 0 | 0.0 | 0.0 | 0.00 | 2.21 | 0.03 | 57 | 1016.3 |
| 20260502101618 | 10 | 360 | 0.0 | 0.0 | 0.00 | 2.21 | 0.03 | 68 | 1016.6 |
| 20260502101555 | 10 | 0 | 0.0 | 0.0 | 0.00 | 2.21 | 0.03 | 57 | 1016.2 |
| 20260502100114 | 10 | 360 | 0.0 | 0.0 | 0.00 | 2.21 | 0.03 | 68 | 1016.5 |
| 20260502080106 | 11 | 360 | 1.6 | 3.2 | 0.00 | 2.18 | 0.00 | 57 | 1015.6 |
| 20260502071535 | 11 | 360 | 1.6 | 4.8 | 0.00 | 2.18 | 0.00 | 68 | 1016.1 |
| 20260502070054 | 11 | 0 | 0.0 | 0.0 | 0.00 | 2.18 | 0.00 | 57 | 1015.6 |
| 20260502070045 | 11 | 360 | 0.0 | 0.0 | 0.00 | 2.18 | 0.00 | 68 | 1016.1 |
| 20260502064555 | 11 | 0 | 0.0 | 0.0 | 0.00 | 2.18 | 0.00 | 57 | 1015.5 |
| 20260502064533 | 11 | 360 | 0.0 | 0.0 | 0.00 | 2.18 | 0.00 | 68 | 1016.1 |
| 20260502063114 | 11 | 0 | 0.0 | 0.0 | 0.00 | 2.18 | 0.00 | 57 | 1015.6 |
| 20260502063036 | 11 | 360 | 0.0 | 0.0 | 0.00 | 2.18 | 0.00 | 68 | 1016.1 |
| 20260502061554 | 11 | 0 | 0.0 | 0.0 | 0.00 | 2.18 | 0.00 | 56 | 1015.4 |
| 20260502061531 | 11 | 360 | 0.0 | 0.0 | 0.00 | 2.18 | 0.00 | 68 | 1015.8 |
| 20260502060058 | 11 | 0 | 0.0 | 0.0 | 0.00 | 2.18 | 0.00 | 57 | 1015.2 |
| 20260502060032 | 11 | 360 | 0.0 | 0.0 | 0.00 | 2.18 | 0.00 | 68 | 1015.6 |
| 20260502054606 | 11 | 0 | 0.0 | 0.0 | 0.00 | 2.18 | 0.00 | 56 | 1015.4 |
| 20260502054527 | 11 | 360 | 0.0 | 0.0 | 0.00 | 2.18 | 0.00 | 68 | 1015.8 |
| 20260502053100 | 11 | 0 | 0.0 | 0.0 | 0.00 | 2.18 | 0.00 | 56 | 1015.5 |
| 20260502053023 | 11 | 360 | 0.0 | 0.0 | 0.00 | 2.18 | 0.00 | 68 | 1015.9 |
| 20260502051558 | 11 | 0 | 0.0 | 0.0 | 0.00 | 2.18 | 0.00 | 56 | 1015.4 |
| 20260502051524 | 11 | 360 | 0.0 | 0.0 | 0.00 | 2.18 | 0.00 | 68 | 1015.9 |
| 20260502050058 | 11 | 0 | 0.0 | 0.0 | 0.00 | 2.18 | 0.00 | 56 | 1015.3 |
| 20260502050013 | 11 | 360 | 0.0 | 0.0 | 0.00 | 2.21 | 2.18 | 68 | 1015.7 |
| 20260502044553 | 11 | 0 | 0.0 | 0.0 | 0.00 | 2.21 | 2.18 | 56 | 1015.4 |
| 20260502044513 | 11 | 360 | 0.0 | 0.0 | 0.00 | 2.21 | 2.18 | 68 | 1015.8 |
| 20260502043056 | 11 | 0 | 0.0 | 3.2 | 0.00 | 2.21 | 2.18 | 56 | 1015.6 |
| 20260502043015 | 11 | 360 | 0.0 | 3.2 | 0.00 | 2.21 | 2.18 | 68 | 1016.0 |
| 20260502041555 | 11 | 360 | 0.0 | 3.2 | 0.00 | 2.21 | 2.18 | 56 | 1015.7 |
| 20260502041512 | 11 | 360 | 0.0 | 3.2 | 0.00 | 2.21 | 2.18 | 68 | 1016.1 |
| 20260502040058 | 11 | 360 | 0.0 | 4.8 | 0.00 | 2.21 | 2.18 | 56 | 1015.5 |
| 20260502040011 | 11 | 360 | 0.0 | 4.8 | 0.00 | 2.21 | 2.18 | 68 | 1015.8 |
| 20260502034556 | 11 | 0 | 0.0 | 3.2 | 0.00 | 2.21 | 2.18 | 56 | 1015.8 |
| 20260502034512 | 11 | 360 | 0.0 | 3.2 | 0.00 | 2.21 | 2.18 | 68 | 1016.1 |
| 20260502033055 | 11 | 0 | 0.0 | 0.0 | 0.00 | 2.21 | 2.18 | 56 | 1015.3 |
| 20260502033011 | 11 | 360 | 0.0 | 0.0 | 0.00 | 2.21 | 2.18 | 67 | 1015.7 |
| 20260502031556 | 11 | 0 | 0.0 | 0.0 | 0.00 | 2.21 | 2.18 | 56 | 1015.8 |
| 20260502031510 | 11 | 360 | 0.0 | 0.0 | 0.00 | 2.21 | 2.18 | 68 | 1016.3 |
| 20260502030109 | 11 | 360 | 1.6 | 3.2 | 0.00 | 2.21 | 2.18 | 68 | 1016.3 |
| 20260502030054 | 11 | 360 | 0.0 | 3.2 | 0.00 | 2.21 | 2.18 | 56 | 1015.9 |
| 20260502024603 | 11 | 360 | 0.0 | 4.8 | 0.03 | 2.24 | 2.18 | 56 | 1015.5 |
| 20260502024521 | 11 | 360 | 0.0 | 4.8 | 0.03 | 2.24 | 2.18 | 68 | 1015.8 |
| 20260502023052 | 10 | 0 | 0.0 | 3.2 | 0.03 | 2.24 | 2.18 | 56 | 1015.1 |
| 20260502023007 | 11 | 360 | 0.0 | 3.2 | 0.03 | 2.24 | 2.18 | 68 | 1015.4 |
| 20260502021559 | 10 | 0 | 0.0 | 0.0 | 0.03 | 2.24 | 2.18 | 56 | 1015.3 |
| 20260502021505 | 10 | 360 | 0.0 | 0.0 | 0.03 | 2.24 | 2.18 | 67 | 1015.5 |
| 20260502020105 | 10 | 0 | 0.0 | 0.0 | 0.05 | 2.24 | 2.18 | 56 | 1015.5 |
| 20260502020005 | 10 | 360 | 0.0 | 0.0 | 0.05 | 2.29 | 2.18 | 67 | 1015.7 |
| 20260502014557 | 10 | 0 | 0.0 | 3.2 | 0.03 | 2.26 | 2.16 | 56 | 1015.2 |
| 20260502014510 | 10 | 360 | 0.0 | 1.6 | 0.03 | 2.26 | 2.16 | 67 | 1015.5 |
| 20260502013103 | 10 | 0 | 1.6 | 6.4 | 0.03 | 2.26 | 2.16 | 56 | 1014.9 |
| 20260502013003 | 10 | 360 | 1.6 | 6.4 | 0.03 | 2.26 | 2.16 | 67 | 1015.2 |
| 20260502011603 | 10 | 360 | 0.0 | 12.9 | 0.03 | 2.26 | 2.16 | 56 | 1014.4 |
| 20260502011502 | 10 | 360 | 0.0 | 12.9 | 0.03 | 2.26 | 2.16 | 67 | 1014.8 |
| 20260502010003 | 10 | 360 | 3.2 | 8.0 | 0.00 | 2.26 | 2.13 | 67 | 1014.2 |
| 20260502004612 | 10 | 360 | 1.6 | 14.5 | 0.05 | 2.26 | 2.13 | 67 | 1014.4 |
| 20260502004603 | 10 | 360 | 1.6 | 14.5 | 0.05 | 2.26 | 2.13 | 56 | 1014.0 |
| 20260502003059 | 10 | 360 | 4.8 | 20.9 | 0.10 | 2.26 | 2.13 | 56 | 1013.3 |
| 20260502003057 | 10 | 360 | 6.4 | 20.9 | 0.10 | 2.26 | 2.13 | 67 | 1013.6 |
| 20260502001559 | 11 | 360 | 1.6 | 6.4 | 0.13 | 2.26 | 2.13 | 67 | 1013.6 |
| 20260502000100 | 10 | 78 | 3.2 | 11.3 | 0.15 | 2.26 | 2.13 | 55 | 1012.7 |
| 20260502000056 | 10 | 76 | 3.2 | 9.7 | 0.15 | 2.26 | 2.13 | 67 | 1013.1 |
| 20260501234558 | 11 | 74 | 1.6 | 12.9 | 0.13 | 2.21 | 2.08 | 67 | 1013.4 |
| 20260501234556 | 11 | 74 | 4.8 | 12.9 | 0.13 | 2.21 | 2.08 | 55 | 1013.1 |
| 20260501233105 | 11 | 0 | 4.8 | 11.3 | 0.10 | 2.16 | 2.03 | 55 | 1013.2 |
| 20260501233054 | 11 | 117 | 1.6 | 11.3 | 0.10 | 2.16 | 2.03 | 67 | 1013.6 |
| 20260501231639 | 11 | 0 | 0.0 | 8.0 | 0.10 | 2.13 | 2.01 | 55 | 1013.4 |
| 20260501231600 | 11 | 360 | 0.0 | 8.0 | 0.10 | 2.13 | 2.01 | 67 | 1013.7 |
| 20260501230106 | 11 | 360 | 0.0 | 8.0 | 0.13 | 2.11 | 1.98 | 55 | 1013.7 |
| 20260501230051 | 11 | 68 | 0.0 | 4.8 | 0.13 | 2.11 | 1.98 | 67 | 1014.0 |
| 20260501224611 | 11 | 0 | 1.6 | 9.7 | 0.18 | 2.08 | 1.96 | 55 | 1013.2 |
| 20260501224552 | 11 | 71 | 1.6 | 8.0 | 0.18 | 2.08 | 1.96 | 66 | 1013.5 |
| 20260501223106 | 11 | 93 | 0.0 | 12.9 | 0.18 | 2.06 | 1.93 | 66 | 1013.2 |
| 20260501223100 | 11 | 0 | 0.0 | 12.9 | 0.18 | 2.06 | 1.93 | 55 | 1012.8 |
| 20260501221608 | 11 | 0 | 0.0 | 12.9 | 0.23 | 2.03 | 1.91 | 55 | 1012.9 |
| 20260501221547 | 11 | 68 | 0.0 | 12.9 | 0.23 | 2.03 | 1.91 | 66 | 1013.2 |
| 20260501220058 | 12 | 87 | 0.0 | 3.2 | 0.20 | 1.98 | 1.85 | 54 | 1012.4 |
| 20260501220047 | 12 | 88 | 1.6 | 12.9 | 0.18 | 1.96 | 1.83 | 66 | 1012.8 |
| 20260501214559 | 12 | 0 | 0.0 | 4.8 | 0.15 | 1.96 | 1.78 | 54 | 1012.8 |
| 20260501214547 | 12 | 338 | 0.0 | 4.8 | 0.15 | 1.96 | 1.78 | 66 | 1013.1 |
| 20260501213100 | 12 | 0 | 0.0 | 9.7 | 0.10 | 1.91 | 1.73 | 54 | 1012.8 |
| 20260501213054 | 12 | 98 | 0.0 | 9.7 | 0.10 | 1.91 | 1.73 | 65 | 1013.2 |
| 20260501211612 | 12 | 0 | 1.6 | 9.7 | 0.05 | 1.85 | 1.68 | 54 | 1012.9 |
| 20260501211547 | 12 | 21 | 1.6 | 6.4 | 0.05 | 1.85 | 1.68 | 65 | 1013.3 |
| 20260501210049 | 12 | 5 | 3.2 | 9.7 | 0.03 | 1.83 | 1.65 | 65 | 1013.2 |
| 20260501204601 | 12 | 0 | 0.0 | 12.9 | 0.00 | 1.85 | 1.63 | 53 | 1012.4 |
| 20260501204545 | 12 | 312 | 0.0 | 12.9 | 0.00 | 1.85 | 1.63 | 65 | 1012.6 |
| 20260501203144 | 12 | 9 | 3.2 | 9.7 | 0.00 | 1.85 | 1.63 | 65 | 1012.3 |
| 20260501203100 | 12 | 352 | 4.8 | 14.5 | 0.00 | 1.85 | 1.63 | 53 | 1012.0 |
| 20260501201556 | 12 | 96 | 8.0 | 19.3 | 0.00 | 1.85 | 1.63 | 53 | 1011.8 |
| 20260501201546 | 12 | 90 | 8.0 | 19.3 | 0.00 | 1.85 | 1.63 | 65 | 1011.9 |
| 20260501200057 | 12 | 78 | 9.7 | 22.5 | 0.00 | 1.85 | 1.63 | 54 | 1010.8 |
| 20260501200043 | 12 | 79 | 9.7 | 22.5 | 0.00 | 1.85 | 1.63 | 66 | 1011.1 |
| 20260501194606 | 12 | 76 | 8.0 | 22.5 | 0.00 | 2.24 | 1.63 | 55 | 1010.7 |
| 20260501194542 | 12 | 83 | 9.7 | 22.5 | 0.00 | 2.24 | 1.63 | 67 | 1011.0 |
| 20260501193054 | 12 | 360 | 11.3 | 32.2 | 0.00 | 2.24 | 1.63 | 56 | 1010.2 |
| 20260501193039 | 12 | 360 | 11.3 | 32.2 | 0.00 | 2.24 | 1.63 | 67 | 1010.6 |
| 20260501191558 | 12 | 104 | 8.0 | 30.6 | 0.03 | 2.24 | 1.63 | 56 | 1010.9 |
| 20260501191536 | 12 | 79 | 8.0 | 20.9 | 0.03 | 2.24 | 1.63 | 67 | 1011.2 |